Карточка аэропорта UATT

Внимание!
Информация на этой странице в стадии наполнения.
Если вы не увидели какой-то информации, или заметили неточность - пожалуйста сообщите нам!
Спасибо!
Команда RU-STAFF
Название аэропортаАктобе
Название аэропорта (англ.)Aktobe
Превышение738 ft. (224.9 m.)
Координаты50°14.748', 57°12.402'
Высота перехода10000ft
Эшелон переходаFL120, QNH<733:FL130
Коды ответчика3440-3447, 3540-3547
Зона ОрВДАктобе РПИ (UATT)
Данные METARUATT 271030Z 14004MPS CAVOK M14/M16 Q1031 NOSIG RMK QFE753/1004
Проноз погоды (TAF)UATT 270500Z 2706/2806 13002MPS 9999 SCT011 TXM12/2710Z TNM22/2802Z TEMPO 2706/2708 3100 BR SCT004 TEMPO 2712/2716 3100 BR BKN005 TEMPO 2716/2804 0500 FZFG VV002
NOTAMshow/hide NOTAM
AWOS   TABLE

Информация о ВПП

ВПП Длина ВПП (м.) Покрытие Курс ВПП Частота ILS
133202Бетон135111.7
313202Бетон315111.7

Диспетчерские позиции




Спутниковое изображение